SL-16 DEB, 22350

Orbit data source: Space-Track

SL-16 DEB, 22350 is space debris in LEO originally from a launch on Fri, 25 Dec 1992 UTC launched from the Tyuratam Missile And Space Complex (TTMTR). Debris objects in space refer to the collection of defunct objects orbiting the Earth. Examples of debris include non-operational satellites, rocket bodies, and fragments generated from explosions, collisions, or faulty payload assembly.

Loading next visibility...
Identifier
22350, 1992-093AP
Orbit
LEO
Country
Flag of CISCIS
Related business
Manufacturer
Unknown
Mission
Spacecraft
Bus & Motor
Unknown
Mass
Unknown
Launch date (UTC)
1992-12-25 (33 years ago)
Launch vehicle
Unknown
Launch site
Tyuratam Missile And Space Complex (TTMTR)
Object type
Payload
Rocket body
Debris
Shape & HBR
Unknown
Radar Cross Section
0.380 m², Medium (>0.1 m² and < 1m²)

Expand to show TLE details & history
Last TLE update: 20 hours ago

TLE from 20 hours ago
0 SL-16 DEB
1 22350U 92093AP  25242.16536520  .00000279  00000-0  19394-3 0  9995
2 22350  70.9111 310.7001 0067844 153.9758 232.3492 14.06170393675010
Epoch: 2025-08-30T03:58Z
TLE epoch observation values (Epoch: 2025-08-30T03:58:07.553Z)
Latitude
24.23903°
Longitude
-78.51846°
Altitude
905.171 km
Speed
7.386 km/s
True Right ascension
21h 18m 27s
True Declination
24° 06' 47"
Sunlit
Object was in full shadow at epoch
Visualization orbit readout
Latitude
Unknown
Longitude
Unknown
Altitude
Unknown
Speed
Unknown
Apparent Right ascension
Unknown
Apparent Declination
Unknown
Sunlit
N/A
Visualization observer readout
Local Sidereal Time
15:57:55
Azimuth
Unknown
Elevation
Unknown
Doppler factor
Unknown
Orbital elements
Apogee altitude
919.626 km
Perigee altitude
821.271 km
Semi-major axis
7,248.585 km
Eccentricity
0.00678
Inclination
70.9111°
RAAN
310.7001°
Arg. of periapsis
153.9758°
True anomaly
231.73685°
Mean anomaly
232.3492°
Eccentric anomaly
232.04271°
Mean motion
3.51693 °/min
Orbital period
102.36 mins
BSTAR
0.00019394
Loading maneuver chart data...
Computing Atmospheric mass density...
Loading historical data...
Loading historical data...
Loading historical data...
Loading historical data...
Loading historical data...
Loading historical data...
Loading historical data...

Documentation

Showing up to 5 results
|